Location: Hebron
(33.0265°N, 96.8636°W)
Time: 15:10:25
(UTC+00:00)

Okean 1 - Visible Passes

Search period start: 03 July 2022 00:00
Search period end: 13 July 2022 00:00
Orbit: 534 x 551 km, 82.5° (Epoch: 02 July)

Date Brightness Start Highest point End Pass type
(mag) Time Alt. Az. Time Alt. Az. Time Alt. Az.
03 Jul 5.9 09:01:25 10° NNE 09:04:11 18° ENE 09:06:56 10° ESE visible
03 Jul 4.6 10:37:17 10° NW 10:40:20 22° W 10:43:22 10° SW visible
04 Jul 5.8 08:54:45 10° NNE 08:57:35 19° ENE 09:00:24 10° ESE visible
04 Jul 4.7 10:30:44 10° NW 10:33:43 21° W 10:36:14 12° SW visible
05 Jul 5.7 08:48:05 10° NNE 08:50:59 19° ENE 08:53:23 12° ESE visible
05 Jul 4.7 10:24:10 10° NW 10:27:06 20° W 10:28:54 15° SW visible
06 Jul 5.6 08:41:25 10° NNE 08:44:23 20° ENE 08:46:06 15° ESE visible
06 Jul 4.7 10:17:36 10° NW 10:20:29 20° W 10:21:38 17° WSW visible
07 Jul 5.4 08:34:45 10° NNE 08:37:46 21° ENE 08:38:54 18° ESE visible
07 Jul 4.8 10:11:03 10° NW 10:13:51 19° W 10:14:26 18° W visible
08 Jul 5.4 08:28:05 10° NNE 08:31:09 21° ENE 08:31:46 21° E visible
08 Jul 4.8 10:04:29 10° NW 10:07:13 18° W 10:07:17 18° W visible
09 Jul 5.4 08:21:25 10° NNE 08:24:32 22° ENE 08:24:39 22° E visible
09 Jul 5.0 09:57:55 10° NW 10:00:11 17° W 10:00:11 17° W visible
10 Jul 5.4 08:14:45 10° NNE 08:17:35 23° ENE 08:17:35 23° ENE visible
10 Jul 5.1 09:51:21 10° NW 09:53:07 16° WNW 09:53:07 16° WNW visible
11 Jul 5.5 08:08:05 10° NNE 08:10:34 22° ENE 08:10:34 22° ENE visible
11 Jul 5.3 09:44:48 10° NW 09:46:06 15° WNW 09:46:06 15° WNW visible
12 Jul 5.6 08:01:25 10° NNE 08:03:35 22° NE 08:03:35 22° NE visible
12 Jul 5.5 09:38:14 10° NW 09:39:07 13° WNW 09:39:07 13° WNW visible
